Location: Newark
(7.0858°N, 171.3717°E)
Time: 09:20:19
(UTC+00:00)

S-56A Canister/Altair - Pass Details

Date: 27 November 2020
Orbit: 633 x 2499 km, 38.9° (Epoch: 27 January)

Event Time Altitude Azimuth Distance (km) Brightness Sun altitude
Rises 14:58:24 0° 333° (NNW) 3,037 - -49.8°
Reaches altitude 10° 15:01:31 10° 353° (N) 2,025 - -49.0°
Maximum altitude 15:04:32 17° 36° (NE) 1,565 - -48.4°
Drops below altitude 10° 15:07:34 10° 79° (E) 2,044 - -47.7°
Exits shadow 15:09:43 - 95° (E) 2,723 11.0 -47.2°
Sets 15:10:43 0° 100° (E) 3,078 11.3 -47.0°
